Showing default

OPS 3674 (VELA 4), 837

Orbit data source: Space-Track

OPS 3674 (VELA 4), 837 is a payload satellite owned by USAF SSD (US) in HEO that was launched on Fri, 17 Jul 1964 UTC via an ATLAS AGENA D launch vehicle from the Air Force Eastern Test Range (AFETR). Payload-class satellites include a variety of spacecraft equipped with specific instruments for various scientific and technological missions. These include communications satellites like Starlink; space stations such as the ISS; scientific satellites like the Hubble; Earth observation satellites from companies like Planet Labs, Umbra, and HawkEye 360; GPS; miniature CubeSats for education and research; and military/defense satellites.

Loading next visibility...
Identifier
837, 1964-040B
Orbit
HEO
Country
Flag of USUS
Related business
Manufacturer
TRW
Mission
Spacecraft
Bus & Motor
VELA, BE-3
Mass
~217 kg wet, 125 kg dry
Launch date (UTC)
1964-07-17 (62 years ago)
Launch vehicle
ATLAS AGENA D
Launch site
Air Force Eastern Test Range (AFETR)
Object type
Payload
Rocket body
Debris
Shape & HBR
Unknown
Radar Cross Section
Medium (>0.1 m² and <1 m²)

Expand to show TLE details & history
Last TLE update: in 2 days

TLE from in 2 days
0 OPS 3674 (VELA 4)
1 00837U 64040B   26176.99104981  .00000371  00000-0  00000-0 0  9996
2 00837  48.6654 120.9880 6161180 256.4269 359.8804  0.24002561 54745
Epoch: 2026-06-25T23:47Z
TLE epoch observation values (Epoch: 2026-06-25T23:47:06.703Z)
Latitude
-47.44932°
Longitude
103.06552°
Altitude
36,307.993 km
Speed
3.878 km/s
True Right ascension
00h 55m 52s
True Declination
-47° 25' 15"
Sunlit
Object was in daylight at epoch
Visualization orbit readout
Latitude
Unknown
Longitude
Unknown
Altitude
Unknown
Speed
Unknown
Apparent Right ascension
Unknown
Apparent Declination
Unknown
Sunlit
N/A
Visualization observer readout
Local Sidereal Time
14:47:24
Azimuth
Unknown
Elevation
Unknown
Doppler factor
Unknown
Orbital elements
Apogee altitude
170,376.422 km
Perigee altitude
35,606.974 km
Semi-major axis
109,369.835 km
Eccentricity
0.61612
Inclination
48.6654°
RAAN
120.988°
Arg. of periapsis
256.4269°
True anomaly
359.36076°
Mean anomaly
359.8804°
Eccentric anomaly
359.68845°
Mean motion
0.06001 °/min
Orbital period
5,999.37 mins
BSTAR
0
Loading maneuver chart data...
Computing Atmospheric mass density...
Loading historical data...
Loading historical data...
Loading historical data...
Loading historical data...
Loading historical data...
Loading historical data...
Loading historical data...
Other satellites on launch #40 in the year 1964 (1964-07-17 UTC)

Documentation

Showing up to 5 results
|